DW1115 Weather Reports


Display with metric or nautical units.
time (UTC)temp
F
wind
direction
speed
MPH
gust
MPH
rain 1hr
in
rain 24hr
in
rain mn
in
humidity
%
barometer
mb
20260506212340 78 266 12.0 18.0 0.00 0.00 0.00 44 1017.3
20260506211552 77 295 9.0 16.0 0.00 0.00 0.00 43 1017.2
20260506211347 78 240 9.0 20.0 0.00 0.00 0.00 43 1017.3
20260506210357 77 247 8.0 15.0 0.00 0.00 0.00 43 1017.4
20260506210008 76 263 9.0 15.0 0.00 0.00 0.00 43 1017.4
20260506205359 76 245 4.0 11.0 0.00 0.00 0.00 43 1017.6
20260506204549 76 261 4.0 10.0 0.00 0.00 0.00 44 1017.6
20260506204323 76 235 5.0 10.0 0.00 0.00 0.00 43 1017.6
20260506203333 75 155 5.0 12.0 0.00 0.00 0.00 44 1017.8
20260506203024 75 273 8.0 12.0 0.00 0.00 0.00 44 1017.8
20260506202340 75 192 6.0 10.0 0.00 0.00 0.00 44 1018.0
20260506201519 74 202 4.0 9.0 0.00 0.00 0.00 44 1017.9
20260506201326 75 262 6.0 9.0 0.00 0.00 0.00 43 1018.0
20260506200334 74 202 3.0 7.0 0.00 0.00 0.00 46 1018.2
20260506200008 74 223 2.0 7.0 0.00 0.00 0.00 46 1018.2
20260506195321 73 165 4.0 9.0 0.00 0.00 0.00 47 1018.4
20260506194606 74 235 4.0 9.0 0.00 0.00 0.00 48 1018.3
20260506194339 74 194 6.0 8.0 0.00 0.00 0.00 48 1018.4
20260506193322 72 240 4.0 7.0 0.00 0.00 0.00 48 1018.7
20260506193044 72 242 5.0 8.0 0.00 0.00 0.00 48 1018.6
20260506192340 72 251 4.0 8.0 0.00 0.00 0.00 50 1018.7
20260506191549 71 246 5.0 8.0 0.00 0.00 0.00 51 1018.9
20260506191348 71 233 4.0 8.0 0.00 0.00 0.00 51 1019.0
20260506190325 71 238 4.0 9.0 0.00 0.00 0.00 50 1019.3
20260506190052 71 190 5.0 9.0 0.00 0.00 0.00 51 1019.2
20260506185326 70 201 5.0 9.0 0.00 0.00 0.00 53 1019.4
20260506184545 69 219 4.0 8.0 0.00 0.00 0.00 55 1019.3
20260506184332 69 254 3.0 8.0 0.00 0.00 0.00 55 1019.5
20260506183342 69 189 5.0 8.0 0.00 0.00 0.00 57 1019.4
20260506183005 68 229 4.0 7.0 0.00 0.00 0.00 57 1019.3
20260506182331 68 181 5.0 7.0 0.00 0.00 0.00 59 1019.5
20260506181520 66 242 2.0 6.0 0.00 0.00 0.00 62 1019.4
20260506181323 67 240 4.0 6.0 0.00 0.00 0.00 62 1019.5
20260506180354 66 259 2.0 6.0 0.00 0.00 0.00 63 1019.4
20260506180041 65 263 3.0 6.0 0.00 0.00 0.00 63 1019.5
20260506175341 66 196 3.0 7.0 0.00 0.00 0.00 64 1019.5
20260506174535 65 39 0.0 7.0 0.00 0.00 0.00 65 1019.5
20260506174352 65 195 4.0 7.0 0.00 0.00 0.00 64 1019.7
20260506173339 64 112 2.0 6.0 0.00 0.00 0.00 67 1019.8
20260506173005 63 122 2.0 6.0 0.00 0.00 0.00 68 1019.8
20260506172322 63 146 4.0 7.0 0.00 0.00 0.00 70 1020.0
20260506171502 62 154 3.0 5.0 0.00 0.00 0.00 70 1020.0
20260506171330 62 196 4.0 5.0 0.00 0.00 0.00 71 1020.1
20260506170342 61 165 3.0 6.0 0.00 0.00 0.00 73 1020.1
20260506170039 60 180 4.0 6.0 0.00 0.00 0.00 74 1020.0
20260506165345 60 217 1.0 4.0 0.00 0.00 0.00 76 1020.3
20260506164538 59 196 2.0 5.0 0.00 0.00 0.00 76 1020.2
20260506164349 59 206 3.0 7.0 0.00 0.00 0.00 76 1020.3
20260506163325 59 190 3.0 5.0 0.00 0.00 0.00 78 1020.5
20260506163038 58 160 2.0 6.0 0.00 0.00 0.00 79 1020.5
20260506162336 58 279 2.0 6.0 0.00 0.00 0.00 79 1020.6
20260506161542 57 204 1.0 5.0 0.00 0.00 0.00 81 1020.6
20260506161342 57 190 2.0 5.0 0.00 0.00 0.00 81 1020.7
20260506160331 57 242 3.0 5.0 0.00 0.00 0.00 81 1020.6
20260506160012 56 206 2.0 4.0 0.00 0.00 0.00 81 1020.6
20260506155320 56 203 2.0 4.0 0.00 0.00 0.00 81 1020.7
20260506154525 55 185 2.0 5.0 0.00 0.00 0.00 81 1020.8
20260506154328 55 203 3.0 5.0 0.00 0.00 0.00 81 1020.8
20260506153359 55 186 3.0 6.0 0.00 0.00 0.00 80 1020.8
20260506153059 55 158 2.0 6.0 0.00 0.00 0.00 80 1020.7
20260506152326 55 167 3.0 7.0 0.00 0.00 0.00 81 1020.9
20260506151539 54 161 4.0 7.0 0.00 0.00 0.00 80 1020.9
20260506151329 55 171 5.0 7.0 0.00 0.00 0.00 80 1020.9
20260506150338 55 137 2.0 4.0 0.00 0.00 0.00 82 1020.8
20260506150031 54 109 0.0 6.0 0.00 0.00 0.00 83 1020.9
20260506145347 54 70 4.0 6.0 0.00 0.00 0.00 83 1020.9
20260506144543 52 71 5.0 8.0 0.00 0.00 0.00 84 1020.8
20260506144355 53 63 5.0 8.0 0.00 0.00 0.00 85 1020.9
20260506143337 52 74 3.0 6.0 0.00 0.00 0.00 87 1020.8
20260506143014 51 69 3.0 5.0 0.00 0.00 0.00 87 1020.7
20260506142347 51 74 3.0 5.0 0.00 0.00 0.00 88 1020.7
20260506141549 50 66 3.0 6.0 0.00 0.00 0.00 88 1020.6
20260506141357 50 19 3.0 6.0 0.00 0.00 0.00 88 1020.6
20260506140339 50 135 0.0 3.0 0.00 0.00 0.00 90 1020.6
20260506140105 49 135 0.0 3.0 0.00 0.00 0.00 90 1020.5
20260506135330 49 135 3.0 4.0 0.00 0.00 0.00 90 1020.5
20260506134513 48 198 1.0 3.0 0.00 0.00 0.00 89 1020.4
20260506134338 48 198 2.0 3.0 0.00 0.00 0.00 89 1020.4
20260506133324 48 36 2.0 8.0 0.00 0.00 0.00 90 1020.4
20260506133001 47 59 2.0 8.0 0.00 0.00 0.00 90 1020.3
20260506132330 47 38 1.0 3.0 0.00 0.00 0.00 90 1020.3
20260506131519 46 80 0.0 2.0 0.00 0.00 0.00 89 1020.2
20260506131321 46 80 0.0 2.0 0.00 0.00 0.00 89 1020.3
20260506130332 46 98 0.0 6.0 0.00 0.00 0.00 89 1020.1
20260506130106 46 98 1.0 6.0 0.00 0.00 0.00 89 1020.0
20260506125334 47 124 0.0 0.0 0.00 0.00 0.00 88 1020.0
20260506124505 47 176 0.0 0.0 0.00 0.00 0.00 88 1019.9
20260506124321 48 176 0.0 1.0 0.00 0.00 0.00 88 1019.9
20260506123334 49 176 1.0 4.0 0.00 0.00 0.00 89 1019.7
20260506123105 48 252 1.0 4.0 0.00 0.00 0.00 89 1019.7
20260506122320 49 62 1.0 4.0 0.00 0.00 0.00 88 1019.7
20260506121511 49 355 2.0 5.0 0.00 0.00 0.00 89 1019.7
20260506121330 49 58 3.0 5.0 0.00 0.00 0.00 89 1019.6
20260506120336 49 106 3.0 5.0 0.00 0.00 0.00 89 1019.6
20260506120004 49 26 1.0 5.0 0.00 0.00 0.00 89 1019.5
20260506115325 50 355 4.0 5.0 0.00 0.00 0.00 89 1019.5
20260506114515 49 351 3.0 5.0 0.00 0.00 0.00 89 1019.4
20260506114335 49 355 4.0 5.0 0.00 0.00 0.00 89 1019.5
20260506113324 49 337 3.0 4.0 0.00 0.00 0.00 89 1019.4
20260506113015 49 355 2.0 4.0 0.00 0.00 0.00 89 1019.3
20260506112332 49 57 2.0 6.0 0.00 0.00 0.00 89 1019.4
20260506111510 49 58 2.0 5.0 0.00 0.00 0.00 89 1019.3
20260506111334 49 44 3.0 5.0 0.00 0.00 0.00 89 1019.3
20260506110343 49 360 0.0 0.0 0.00 0.00 0.00 89 1019.3
20260506110045 49 355 0.0 0.0 0.00 0.00 0.00 89 1019.2
20260506105328 49 355 0.0 0.0 0.00 0.00 0.00 88 1019.2
20260506104544 49 355 0.0 0.0 0.00 0.00 0.00 89 1019.2
20260506104358 49 294 0.0 0.0 0.00 0.00 0.00 89 1019.2
20260506103324 49 294 0.0 0.0 0.00 0.00 0.00 87 1019.3
20260506103018 48 294 0.0 2.0 0.00 0.00 0.00 87 1019.2
20260506102334 50 263 1.0 3.0 0.00 0.00 0.00 87 1019.3
20260506101523 50 34 0.0 1.0 0.00 0.00 0.00 88 1019.3
20260506101325 51 34 0.0 1.0 0.00 0.00 0.00 88 1019.3
20260506100333 51 34 0.0 2.0 0.00 0.00 0.00 87 1019.4
20260506100105 50 34 0.0 2.0 0.00 0.00 0.00 87 1019.2
20260506095339 51 34 1.0 2.0 0.00 0.00 0.00 87 1019.3
20260506094516 51 34 1.0 3.0 0.00 0.00 0.00 87 1019.4
20260506094331 51 34 1.0 4.0 0.00 0.00 0.00 87 1019.4
20260506093337 51 360 2.0 4.0 0.00 0.00 0.00 87 1019.4
20260506093013 51 5 1.0 4.0 0.00 0.00 0.00 87 1019.3
20260506092327 51 5 3.0 4.0 0.00 0.00 0.00 87 1019.4
20260506091513 51 344 3.0 4.0 0.00 0.00 0.00 87 1019.2
20260506091333 51 355 3.0 4.0 0.00 0.00 0.00 87 1019.2
20260506090337 51 345 0.0 4.0 0.00 0.00 0.00 87 1019.2
20260506090056 51 360 2.0 4.0 0.00 0.00 0.00 87 1019.1
20260506085321 51 355 3.0 5.0 0.00 0.00 0.00 87 1019.1
20260506084535 51 360 3.0 5.0 0.00 0.00 0.00 86 1019.1
20260506084352 51 15 3.0 5.0 0.00 0.00 0.00 86 1019.1
20260506083335 52 355 1.0 3.0 0.00 0.00 0.00 87 1019.1
20260506083041 51 13 0.0 0.0 0.00 0.00 0.00 87 1019.1
20260506082344 52 360 0.0 0.0 0.00 0.00 0.00 87 1019.2
20260506081536 51 355 0.0 3.0 0.00 0.00 0.00 87 1019.1
20260506081326 52 355 0.0 4.0 0.00 0.00 0.00 87 1019.2
20260506080337 52 355 2.0 2.0 0.00 0.00 0.00 87 1019.1
20260506073334 52 355 0.0 0.0 0.00 0.00 0.00 87 1018.8
20260506073112 52 355 0.0 0.0 0.00 0.00 0.00 87 1018.7
20260506072349 52 355 0.0 0.0 0.00 0.00 0.00 87 1018.8
20260506071544 52 355 0.0 1.0 0.00 0.00 0.00 85 1018.7
20260506071347 52 355 0.0 1.0 0.00 0.00 0.00 86 1018.7
20260506070331 52 355 2.0 3.0 0.00 0.00 0.00 86 1018.6
20260506062326 53 263 1.0 3.0 0.00 0.00 0.00 84 1018.4
20260506061547 53 155 0.0 0.0 0.00 0.00 0.00 83 1018.3
20260506061354 53 155 0.0 0.0 0.00 0.00 0.00 83 1018.3
20260506060323 54 155 0.0 2.0 0.00 0.00 0.00 82 1018.2
20260506051350 55 305 9.0 13.0 0.00 0.00 0.00 82 1017.9
20260506050350 55 296 11.0 13.0 0.00 0.00 0.00 82 1017.7
20260506044524 55 297 11.0 15.0 0.00 0.00 0.00 81 1017.4
20260506044323 55 289 11.0 15.0 0.00 0.00 0.00 81 1017.5
20260506043328 55 313 10.0 14.0 0.00 0.00 0.00 80 1017.3
20260506043053 55 312 11.0 14.0 0.00 0.00 0.00 80 1017.2
20260506042355 56 299 10.0 14.0 0.00 0.00 0.00 80 1017.1
20260506041530 55 311 10.0 13.0 0.00 0.00 0.00 80 1016.9
20260506041325 56 295 9.0 13.0 0.00 0.00 0.00 79 1017.1
20260506040354 56 286 10.0 13.0 0.00 0.00 0.00 79 1016.7
20260506035336 56 309 10.0 15.0 0.00 0.00 0.00 78 1016.7
20260506034510 56 311 12.0 16.0 0.00 0.00 0.00 78 1016.6
20260506034328 57 291 10.0 14.0 0.00 0.00 0.00 77 1016.6
20260506033337 57 306 12.0 15.0 0.00 0.00 0.00 77 1016.4
20260506033002 57 296 11.0 18.0 0.00 0.00 0.00 77 1016.2
20260506032328 57 288 14.0 18.0 0.00 0.00 0.00 76 1016.1
20260506031553 57 321 13.0 16.0 0.00 0.00 0.00 75 1016.0
20260506031357 58 297 13.0 19.0 0.00 0.00 0.00 75 1016.1
20260506030327 58 294 14.0 19.0 0.00 0.00 0.00 74 1016.0
20260506030022 58 309 15.0 19.0 0.00 0.00 0.00 74 1015.8
20260506025333 59 317 14.0 18.0 0.00 0.00 0.00 73 1015.9
20260506024511 59 281 15.0 23.0 0.00 0.00 0.00 72 1015.7
20260506024323 59 312 16.0 23.0 0.00 0.00 0.00 71 1015.8
20260506023329 60 309 15.0 19.0 0.00 0.00 0.00 70 1015.8
20260506023005 60 298 14.0 19.0 0.00 0.00 0.00 69 1015.6
20260506022339 61 296 14.0 24.0 0.00 0.00 0.00 68 1015.6
20260506021519 61 304 17.0 22.0 0.00 0.00 0.00 67 1015.5
20260506021329 61 296 17.0 21.0 0.00 0.00 0.00 67 1015.5
20260506020335 62 297 16.0 22.0 0.00 0.00 0.00 66 1015.5
20260506020126 61 318 17.0 22.0 0.00 0.00 0.00 66 1015.5
20260506015325 62 314 15.0 22.0 0.00 0.00 0.00 65 1015.5
20260506014514 62 319 14.0 22.0 0.00 0.00 0.00 64 1015.4
20260506014336 63 285 16.0 22.0 0.00 0.00 0.00 64 1015.5
20260506013326 64 322 14.0 21.0 0.00 0.00 0.00 63 1015.3
20260506013006 63 309 15.0 21.0 0.00 0.00 0.00 63 1015.3
20260506012339 64 304 15.0 22.0 0.00 0.00 0.00 62 1015.4
20260506011525 64 317 14.0 22.0 0.00 0.00 0.00 61 1015.3
20260506011324 65 322 16.0 25.0 0.00 0.00 0.00 61 1015.4
20260506010326 65 325 15.0 25.0 0.00 0.00 0.00 61 1015.5
20260506010045 64 306 17.0 25.0 0.00 0.00 0.00 61 1015.3
20260506005353 65 277 18.0 25.0 0.00 0.00 0.00 59 1015.4
20260506004526 65 274 15.0 21.0 0.00 0.00 0.00 58 1015.3
20260506004325 65 313 14.0 20.0 0.00 0.00 0.00 58 1015.4
20260506003334 65 309 14.0 19.0 0.00 0.00 0.00 58 1015.3
20260506003020 64 317 15.0 21.0 0.00 0.00 0.00 59 1015.2
20260506002326 65 284 15.0 21.0 0.00 0.00 0.00 59 1015.3
20260506001538 64 282 14.0 21.0 0.00 0.00 0.00 60 1015.1
20260506001337 64 264 14.0 19.0 0.00 0.00 0.00 60 1015.2
20260506000323 64 300 13.0 21.0 0.00 0.00 0.00 60 1015.2
20260506000006 64 306 16.0 21.0 0.00 0.00 0.00 59 1015.0
20260505235335 65 274 15.0 20.0 0.00 0.00 0.00 59 1015.0
20260505234523 65 281 15.0 23.0 0.00 0.00 0.00 58 1015.1
20260505234326 65 302 15.0 23.0 0.00 0.00 0.00 58 1015.0
20260505233334 66 262 15.0 19.0 0.00 0.00 0.00 57 1015.0
20260505233014 65 275 14.0 19.0 0.00 0.00 0.00 57 1014.9
20260505232325 66 280 14.0 23.0 0.00 0.00 0.00 56 1015.1
20260505231530 67 297 15.0 20.0 0.00 0.00 0.00 54 1014.9
20260505231334 67 307 15.0 20.0 0.00 0.00 0.00 54 1015.0
20260505230325 68 267 14.0 21.0 0.00 0.00 0.00 53 1015.0
20260505230031 66 298 12.0 21.0 0.00 0.00 0.00 54 1015.1
20260505225353 66 288 14.0 20.0 0.00 0.00 0.00 54 1015.1
20260505224511 66 298 12.0 21.0 0.00 0.00 0.00 54 1015.2
20260505224337 66 271 14.0 23.0 0.00 0.00 0.00 53 1015.3
20260505223325 67 316 14.0 22.0 0.00 0.00 0.00 53 1015.3
20260505223001 66 306 14.0 23.0 0.00 0.00 0.00 54 1015.2
20260505222335 66 316 17.0 23.0 0.00 0.00 0.00 53 1015.3
20260505221515 66 284 13.0 21.0 0.00 0.00 0.00 54 1015.1
20260505221324 66 283 15.0 21.0 0.00 0.00 0.00 53 1015.2
20260505220334 67 267 12.0 23.0 0.00 0.00 0.00 53 1015.3
20260505220107 66 265 15.0 23.0 0.00 0.00 0.00 53 1015.2
20260505215345 66 268 12.0 17.0 0.00 0.00 0.00 53 1015.5
20260505214534 65 294 12.0 18.0 0.00 0.00 0.00 52 1015.4
20260505214329 66 268 14.0 20.0 0.00 0.00 0.00 51 1015.5
20260505213333 66 271 10.0 18.0 0.00 0.00 0.00 50 1015.6
20260505213007 66 305 14.0 18.0 0.00 0.00 0.00 50 1015.6